Dewpoint
33 35 43 46 52 52 53 54 54 54 55 55 55 55 56 56 56 57 58 59 60 62 63 64 66 67 65 66 68 70 70 69 69 68 68 68 69 69 69 69 68 66 69
30 30 41 44 49 52 53 53 54 54 54 54 55 55 55 55 56 56 57 57 58 59 60 61 62 64 66 64 65 66 69 70 69 70 69 70 70 69 69 69 68 66 66
24 22 29 43 48 51 52 53 53 54 54 55 55 55 55 55 56 56 56 56 56 57 58 58 59 61 63 64 63 64 65 69 69 69 70 67 64 68 68 69 68 67 67
17 20 25 43 47 49 51 52 53 54 54 54 55 55 55 55 56 56 56 56 56 55 56 56 57 58 60 62 64 62 63 64 68 69 68 67 64 68 68 68 69 68 68
16 24 27 43 46 48 50 52 52 53 54 54 55 55 55 55 55 55 55 55 55 55 55 55 55 55 57 60 62 64 62 63 63 65 66 66 65 66 69 68 68 68 68
19 23 32 43 46 48 51 51 52 53 54 55 55 55 55 55 56 56 56 55 55 55 55 54 54 55 54 57 60 62 64 63 62 58 65 67 67 68 69 68 70 70 69
21 25 25 42 44 47 49 50 51 51 53 53 53 53 54 55 54 54 55 55 54 54 54 54 54 54 54 55 57 59 61 63 58 57 58 66 67 69 68 69 69 68 68
20 24 27 37 43 45 47 49 49 50 50 51 51 51 51 51 52 51 52 53 53 53 53 53 53 53 53 53 54 57 58 60 58 54 56 61 67 68 68 68 68 68 68
20 23 27 32 37 43 45 47 47 49 49 50 50 50 49 50 50 50 49 49 49 49 50 51 51 51 52 52 53 54 56 58 56 53 51 53 67 66 67 68 69 69 69
21 26 28 32 35 36 38 45 48 47 47 47 47 47 48 46 46 47 49 48 49 50 50 51 52 52 53 52 52 52 52 55 53 52 51 50 57 58 62 66 67 68 68
25 27 30 33 35 36 36 36 43 45 44 43 43 44 41 37 37 39 45 48 51 50 49 50 50 51 52 52 52 52 51 47 49 51 51 55 52 51 60 61 64 67 67
25 28 31 33 34 33 32 34 36 36 37 37 37 35 36 36 36 39 41 45 47 48 48 47 47 47 48 44 44 48 41 41 46 49 50 55 49 47 49 60 62 62 65
26 31 31 31 31 31 32 33 36 36 37 37 35 36 39 39 39 39 39 39 38 42 38 40 39 37 36 41 41 39 35 32 41 44 50 56 50 48 48 52 61 60 61
24 27 30 31 30 30 32 33 33 34 35 35 36 38 39 40 40 40 40 40 39 39 38 38 39 38 37 35 32 31 30 28 30 35 46 54 48 46 47 49 53 61 60
20 27 28 29 30 29 29 31 32 33 34 35 35 37 37 39 40 40 39 40 40 40 39 38 38 38 37 37 35 33 30 28 25 26 36 55 51 48 47 49 53 56 59
24 26 27 28 29 30 30 30 33 34 35 35 36 35 35 38 39 39 39 40 41 41 41 39 38 37 37 38 37 35 32 30 28 26 32 44 53 49 48 49 51 53 54
25 26 28 27 28 30 30 32 34 35 35 35 35 36 36 38 37 39 41 41 42 42 42 41 39 38 38 37 37 37 34 32 31 27 29 35 49 54 49 49 49 51 51
25 25 26 27 29 30 30 31 32 34 35 35 35 35 36 38 38 40 41 41 42 43 43 42 41 39 38 37 37 37 37 34 31 29 29 32 41 45 51 50 49 49 48
25 25 26 28 28 29 30 32 32 33 34 34 35 35 37 38 39 40 42 41 42 43 42 42 41 40 39 37 37 36 36 37 36 32 28 31 37 44 44 49 49 48 46
26 27 28 29 29 29 31 31 32 33 34 34 35 36 34 36 38 41 40 41 41 42 42 42 42 42 40 38 37 35 36 37 38 37 35 33 36 41 43 43 46 44 45
26 28 28 29 29 30 31 31 32 32 34 34 35 32 33 37 38 36 39 40 41 41 42 42 42 42 42 41 38 36 36 35 35 36 35 34 35 38 41 43 45 43 42
26 27 28 29 30 30 32 32 32 32 34 33 32 31 34 36 37 35 37 40 40 40 40 41 41 41 42 41 39 36 33 33 35 35 35 34 33 36 40 40 40 39 40
27 28 28 29 30 30 31 32 33 32 32 31 31 32 33 34 35 37 38 39 39 40 41 41 41 40 40 42 41 38 34 34 34 37 34 36 33 34 37 39 39 38 37
27 28 29 30 31 30 31 32 31 31 30 30 31 31 32 33 34 37 38 38 39 40 40 41 42 42 41 39 42 41 39 35 35 33 36 35 35 33 33 37 38 37 34
28 29 30 30 31 32 33 33 33 32 33 32 32 31 32 33 35 36 38 39 40 40 40 40 42 41 43 42 40 40 38 36 35 34 32 34 35 34 34 36 39 38 33
29 29 30 30 31 32 33 33 33 33 32 32 32 32 32 33 34 36 38 39 40 40 39 41 42 41 42 42 42 41 38 37 36 36 34 33 33 34 37 36 38 39 37
Lifted_Index
17 17 17 16 15 14 14 13 13 13 12 12 12 12 12 12 11 11 10 9 8 7 7 6 5 4 4 4 2 1 0 -0 -0 0 1 1 1 1 1 1 1 2 2
18 18 18 17 16 15 14 14 13 13 13 13 12 12 12 12 11 11 11 10 9 8 8 7 6 5 5 4 3 2 1 0 -0 0 1 1 2 1 1 1 2 2 2
19 19 19 17 16 15 14 14 14 13 13 13 13 12 12 12 11 11 11 11 10 10 9 9 8 7 6 5 4 3 2 1 0 0 0 1 2 2 1 1 2 2 2
19 19 19 17 16 15 14 14 14 13 13 12 12 12 12 12 11 11 11 11 11 11 10 10 10 9 7 6 5 4 4 3 2 1 0 1 1 2 1 1 1 2 2
19 19 18 17 16 15 14 14 13 13 13 12 12 12 12 11 11 11 11 11 11 11 11 11 11 10 9 8 6 5 4 4 3 2 1 1 1 1 0 1 1 1 1
18 18 18 17 16 15 14 14 14 13 13 12 12 12 12 12 11 11 11 11 11 11 11 11 11 11 11 9 7 6 5 4 4 3 2 1 0 -0 -0 0 0 0 1
18 18 18 17 16 15 15 14 14 14 13 13 13 13 12 12 12 12 11 11 11 11 11 11 12 12 12 11 9 7 6 5 4 3 3 2 1 -0 -1 -1 -0 -0 0
18 19 18 18 17 16 16 15 15 14 14 14 14 14 13 13 13 13 12 12 12 12 11 12 12 12 12 12 10 9 7 6 5 4 3 2 1 0 -0 -1 -1 -1 -0
19 19 18 18 17 17 16 16 15 15 15 15 16 15 15 15 15 14 14 13 13 12 12 12 12 12 12 12 11 10 9 8 6 5 4 3 2 1 0 -0 -1 -1 -1
18 18 18 17 17 16 16 15 15 15 15 16 16 16 16 16 16 15 14 13 13 13 12 12 12 11 11 11 11 11 10 9 8 6 5 4 3 3 2 1 0 -0 -1
17 17 16 16 16 15 15 15 15 14 15 15 15 15 15 15 15 14 14 13 12 12 12 12 12 12 12 11 11 11 11 11 10 8 7 7 6 5 4 2 1 1 0
16 16 15 15 14 15 15 15 15 15 15 15 15 15 14 14 13 13 12 12 12 12 12 12 12 13 13 13 12 12 13 13 11 9 8 8 8 8 6 5 3 2 2
15 14 14 14 14 15 15 15 15 15 15 15 15 15 14 13 13 13 12 12 12 12 12 12 13 13 13 13 13 14 14 14 13 11 9 8 9 10 9 7 5 3 3
14 14 13 14 14 15 15 15 15 15 14 14 14 14 14 13 13 13 13 13 13 13 13 13 13 13 13 13 13 14 15 16 15 13 10 9 9 10 10 9 7 5 4
13 13 13 14 14 14 14 14 14 14 14 14 14 14 14 14 13 13 13 13 13 13 14 14 13 13 12 12 12 13 14 15 16 15 13 10 10 10 10 9 7 6 5
13 13 14 14 14 14 14 14 14 13 13 13 14 14 14 13 13 13 13 13 13 13 14 14 14 13 13 12 12 12 12 13 14 15 14 12 10 10 10 9 8 7 7
13 13 14 14 14 14 14 14 14 13 13 13 14 13 13 13 13 13 13 13 13 13 13 14 14 14 13 12 12 11 11 11 11 13 14 13 11 10 10 10 9 9 9
13 14 14 14 14 14 14 14 14 14 14 13 13 13 12 12 12 12 12 12 12 12 12 13 13 14 13 13 12 11 10 10 10 11 12 12 11 10 10 10 10 10 10
14 14 14 14 14 14 14 14 14 14 13 13 13 13 13 12 12 11 11 11 11 11 12 12 12 13 13 13 13 12 11 10 10 10 10 11 11 10 9 10 10 11 11
14 14 14 14 14 14 14 14 14 13 13 13 13 13 13 12 11 11 10 10 10 10 11 11 12 12 12 13 13 12 11 10 10 10 10 10 10 9 9 9 10 11 11
14 14 14 14 14 14 13 13 13 13 13 13 13 13 13 12 11 10 10 10 9 9 10 10 11 11 12 12 12 12 11 10 10 10 10 10 10 9 9 9 9 10 10
14 14 14 14 13 14 13 13 13 13 13 13 13 13 12 11 10 10 9 9 8 8 8 9 10 11 11 11 12 12 11 10 10 10 10 10 10 10 9 9 9 9 10
15 14 14 14 13 13 13 12 12 13 13 13 13 12 11 10 10 9 8 8 8 7 7 7 8 9 10 10 11 11 10 10 9 9 9 10 10 10 10 9 9 9 9
14 14 14 13 13 13 12 12 12 12 13 13 12 11 11 10 9 8 7 7 7 7 6 6 7 8 9 9 10 10 10 10 9 9 9 9 10 10 10 10 9 9 9
14 14 14 13 13 13 12 12 12 12 12 12 12 11 10 9 8 7 7 7 7 7 6 6 6 7 8 8 9 10 10 10 10 9 8 8 9 9 10 10 9 9 9
14 14 14 13 13 12 12 12 12 12 12 12 11 10 10 9 8 7 7 6 6 6 6 6 6 7 7 8 9 9 9 10 9 9 8 8 8 9 9 9 9 9 9